This is the latest recevied weather packets stored in our database for station/object IR3AS. If no packets are shown the sender has not sent any weather packets the latest 10 day(s).
| Time | Temp. | Humidity | Pressure | Rain* | Wind** | Luminosity | Snow |
|---|---|---|---|---|---|---|---|
| 1777809656 | 12.78° C | 44% | 862.3 hPa | 0 mm | - | - | - |
| 1777809356 | 12.78° C | 44% | 862.2 hPa | 0 mm | - | - | - |
| 1777809056 | 12.22° C | 44% | 862.2 hPa | 0 mm | - | - | - |
| 1777808756 | 12.22° C | 44% | 862.3 hPa | 0 mm | - | - | - |
| 1777808456 | 12.78° C | 43% | 862.2 hPa | 0 mm | - | - | - |
| 1777808156 | 12.78° C | 43% | 862.2 hPa | 0 mm | - | - | - |
| 1777807856 | 12.78° C | 43% | 862.4 hPa | 0 mm | - | - | - |
| 1777807637 | 13.33° C | 43% | 862.6 hPa | 0 mm | - | - | - |
| 1777807556 | 13.33° C | 43% | 862.6 hPa | 0 mm | - | - | - |
| 1777807256 | 13.89° C | 43% | 862.3 hPa | 0 mm | - | - | - |
| 1777806956 | 13.89° C | 42% | 862.5 hPa | 0 mm | - | - | - |
| 1777806656 | 13.89° C | 43% | 862.5 hPa | 0 mm | - | - | - |
| 1777806356 | 13.33° C | 42% | 862.1 hPa | 0 mm | - | - | - |
| 1777806056 | 13.89° C | 39% | 862.1 hPa | 0 mm | - | - | - |
| 1777805756 | 13.89° C | 40% | 862.2 hPa | 0 mm | - | - | - |
| 1777805560 | 13.89° C | 41% | 862.2 hPa | 0 mm | - | - | - |
| 1777805456 | 13.89° C | 41% | 862.2 hPa | 0 mm | - | - | - |
| 1777805156 | 12.78° C | 40% | 862.4 hPa | 0 mm | - | - | - |
| 1777804856 | 12.78° C | 41% | 862 hPa | 0 mm | - | - | - |
| 1777804556 | 12.22° C | 42% | 862.1 hPa | 0 mm | - | - | - |
| 1777804256 | 12.22° C | 41% | 862 hPa | 0 mm | - | - | - |
| 1777803956 | 11.67° C | 41% | 861.8 hPa | 0 mm | - | - | - |
| 1777803656 | 11.67° C | 39% | 862 hPa | 0 mm | - | - | - |
| 1777803356 | 11.67° C | 39% | 862.2 hPa | 0 mm | - | - | - |
| 1777803056 | 11.67° C | 41% | 862 hPa | 0 mm | - | - | - |
* Rain latest hour (hover to see other rain measurements)
** Current wind speed in m/s (hover to see current wind gust speed)